NOAA 16 DEB, 41233

Orbit data source: Space-Track

NOAA 16 DEB, 41233 is space debris in SSO originally from a launch on Thu, 21 Sep 2000 UTC launched from the Air Force Western Test Range (AFWTR). Debris objects in space refer to the collection of defunct objects orbiting the Earth. Examples of debris include non-operational satellites, rocket bodies, and fragments generated from explosions, collisions, or faulty payload assembly.

Loading next visibility...
Identifier
41233, 2000-055EN
Orbit
SSO
Country
Flag of USUS
Related business
Manufacturer
Unknown
Mission
Spacecraft
Bus & Motor
Unknown
Mass
Unknown
Launch date (UTC)
2000-09-21 (26 years ago)
Launch vehicle
Unknown
Launch site
Air Force Western Test Range (AFWTR)
Object type
Payload
Rocket body
Debris
Shape & HBR
Unknown shape, 0.1 m
Radar Cross Section
Small (<0.1 m²)

Expand to show TLE details & history
Last TLE update: 1 day ago

TLE from 1 day ago
0 NOAA 16 DEB
1 41233U 00055EN  26127.55456915  .00002353  00000-0  10957-2 0  9998
2 41233  98.6874 166.2926 0036239 254.2415 105.4765 14.21125629535380
Epoch: 2026-05-07T13:18Z
TLE epoch observation values (Epoch: 2026-05-07T13:18:34.774Z)
Latitude
0.00005°
Longitude
101.24866°
Altitude
831.516 km
Speed
7.434 km/s
True Right ascension
11h 05m 10s
True Declination
0° 00' 00"
Sunlit
Object was in full shadow at epoch
Visualization orbit readout
Latitude
Unknown
Longitude
Unknown
Altitude
Unknown
Speed
Unknown
Apparent Right ascension
Unknown
Apparent Declination
Unknown
Sunlit
N/A
Visualization observer readout
Local Sidereal Time
00:21:39
Azimuth
Unknown
Elevation
Unknown
Doppler factor
Unknown
Orbital elements
Apogee altitude
844.785 km
Perigee altitude
792.624 km
Semi-major axis
7,196.841 km
Eccentricity
0.00362
Inclination
98.6874°
RAAN
166.2926°
Arg. of periapsis
254.2415°
True anomaly
105.87622°
Mean anomaly
105.4765°
Eccentric anomaly
105.67641°
Mean motion
3.55492 °/min
Orbital period
101.27 mins
BSTAR
0.0010957
Loading maneuver chart data...
Computing Atmospheric mass density...
Loading historical data...
Loading historical data...
Loading historical data...
Loading historical data...
Loading historical data...
Loading historical data...
Loading historical data...

Documentation

Showing up to 5 results
|